Location: Zagreb
(45.8000°N, 16.0000°E)
Time: 19:25:18
(UTC+02:00)

A-11 Canister half - Pass Details

Date: 18 August 2022
Orbit: 1524 x 1684 km, 47.3° (Epoch: 05 October)

Event Time Altitude Azimuth Distance (km) Brightness Sun altitude
Rises 02:01:44 0° 175° (S) 4,840 - -29.4°
Reaches altitude 10° 02:06:39 10° 154° (SSE) 3,888 - -29.1°
Exits shadow 02:09:43 14° 136° (SE) 3,561 10.6 -29.0°
Maximum altitude 02:11:43 15° 123° (ESE) 3,504 10.7 -28.9°
Drops below altitude 10° 02:16:50 10° 92° (E) 3,939 11.3 -28.5°
Sets 02:21:49 0° 72° (ENE) 4,941 12.2 -28.2°
